FW8003 Weather Reports


Display with metric or nautical units.
time (UTC)temp
F
wind
direction
speed
MPH
gust
MPH
rain 1hr
in
rain 24hr
in
rain mn
in
humidity
%
barometer
mb
20260506095516 75 0 1.0 5.0 0.00 0.00 0.00 91 1007.3
20260506095016 75 198 0.0 4.0 0.00 0.00 0.00 91 1007.2
20260506094536 75 100 1.0 5.0 0.00 0.00 0.00 91 1007.1
20260506094016 75 156 1.0 5.0 0.00 0.00 0.00 91 1007.0
20260506093516 75 190 1.0 8.0 0.00 0.00 0.00 91 1007.0
20260506093036 75 175 1.0 8.0 0.00 0.00 0.00 91 1007.0
20260506092517 75 131 2.0 8.0 0.00 0.00 0.00 91 1006.9
20260506092017 75 180 2.0 6.0 0.00 0.00 0.00 91 1006.9
20260506091532 75 170 1.0 6.0 0.00 0.00 0.00 91 1006.9
20260506091016 75 147 2.0 6.0 0.00 0.00 0.00 91 1006.9
20260506090516 75 144 1.0 6.0 0.00 0.00 0.00 90 1006.9
20260506090031 75 159 2.0 6.0 0.00 0.00 0.00 91 1006.9
20260506085519 75 168 1.0 5.0 0.00 0.00 0.00 90 1006.9
20260506085019 75 0 1.0 5.0 0.00 0.00 0.00 90 1006.9
20260506084534 75 182 1.0 7.0 0.00 0.00 0.00 90 1006.9
20260506084018 75 209 1.0 7.0 0.00 0.00 0.00 90 1006.9
20260506083600 76 0 1.0 8.0 0.00 0.00 0.00 90 1006.9
20260506083037 76 0 2.0 8.0 0.00 0.00 0.00 90 1006.9
20260506082516 76 166 2.0 8.0 0.00 0.00 0.00 90 1006.9
20260506082016 76 163 2.0 9.0 0.00 0.00 0.00 90 1006.9
20260506081545 76 165 4.0 9.0 0.00 0.00 0.00 90 1006.9
20260506081017 76 153 2.0 8.0 0.00 0.00 0.00 89 1006.9
20260506080520 76 191 2.0 7.0 0.00 0.00 0.00 89 1007.0
20260506073521 76 171 2.0 6.0 0.00 0.00 0.00 89 1007.5
20260506073034 76 192 1.0 7.0 0.00 0.00 0.00 89 1007.7
20260506072517 76 5 1.0 7.0 0.00 0.00 0.00 89 1007.7
20260506072016 76 170 1.0 6.0 0.00 0.00 0.00 89 1007.6
20260506071534 76 151 0.0 6.0 0.00 0.00 0.00 89 1007.8
20260506071017 76 243 1.0 6.0 0.00 0.00 0.00 89 1007.9
20260506070516 76 188 2.0 5.0 0.00 0.00 0.00 89 1007.9
20260506062516 77 173 2.0 7.0 0.00 0.00 0.00 88 1008.0
20260506062020 76 0 1.0 6.0 0.00 0.00 0.00 88 1008.0
20260506061538 77 128 1.0 7.0 0.00 0.00 0.00 87 1008.0
20260506061017 77 122 1.0 9.0 0.00 0.00 0.00 87 1008.0
20260506060520 77 157 3.0 9.0 0.00 0.00 0.00 87 1007.9
20260506051020 77 111 3.0 10.0 0.00 0.00 0.00 86 1007.8
20260506050519 77 188 3.0 10.0 0.00 0.00 0.00 86 1007.8
20260506045016 77 79 2.0 10.0 0.00 0.00 0.00 86 1007.8
20260506044539 77 179 1.0 12.0 0.00 0.00 0.00 86 1007.7
20260506044020 77 153 3.0 12.0 0.00 0.00 0.00 86 1007.6
20260506043516 77 186 2.0 8.0 0.00 0.00 0.00 86 1007.6
20260506043036 77 207 2.0 8.0 0.00 0.00 0.00 85 1007.5
20260506042517 77 119 2.0 9.0 0.00 0.00 0.00 85 1007.5
20260506042017 77 175 3.0 9.0 0.00 0.00 0.00 85 1007.5
20260506041538 77 165 2.0 7.0 0.00 0.00 0.00 85 1007.5
20260506041016 77 0 1.0 9.0 0.00 0.00 0.00 85 1007.7
20260506040521 77 168 2.0 9.0 0.00 0.00 0.00 85 1007.7
20260506040035 78 192 2.0 6.0 0.00 0.00 0.00 85 1007.7
20260506035517 78 199 2.0 7.0 0.00 0.00 0.00 85 1007.6
20260506035017 78 0 2.0 7.0 0.00 0.00 0.00 85 1007.6
20260506034541 78 147 3.0 7.0 0.00 0.00 0.00 85 1007.6
20260506034017 78 169 2.0 7.0 0.00 0.00 0.00 85 1007.5
20260506033516 78 144 0.0 7.0 0.00 0.00 0.00 84 1007.4
20260506033038 78 194 2.0 7.0 0.00 0.00 0.00 84 1007.3
20260506032516 78 94 1.0 6.0 0.00 0.00 0.00 84 1007.4
20260506032017 78 144 1.0 6.0 0.00 0.00 0.00 84 1007.4
20260506031539 78 207 2.0 7.0 0.00 0.00 0.00 84 1007.4
20260506031016 78 246 1.0 7.0 0.00 0.00 0.00 84 1007.4
20260506030520 78 213 2.0 7.0 0.00 0.00 0.00 83 1007.4
20260506030036 78 0 1.0 7.0 0.00 0.00 0.00 83 1007.3
20260506025522 78 178 2.0 6.0 0.00 0.00 0.00 83 1007.2
20260506025018 78 175 1.0 5.0 0.00 0.00 0.00 83 1007.2
20260506024547 78 138 2.0 7.0 0.00 0.00 0.00 83 1007.2
20260506024018 78 161 2.0 7.0 0.00 0.00 0.00 83 1007.1
20260506023519 78 189 2.0 6.0 0.00 0.00 0.00 83 1006.9
20260506023041 78 168 1.0 6.0 0.00 0.00 0.00 83 1006.8
20260506022523 78 95 2.0 6.0 0.00 0.00 0.00 83 1006.9
20260506022019 78 184 0.0 6.0 0.00 0.00 0.00 83 1006.7
20260506021536 78 133 1.0 6.0 0.00 0.00 0.00 83 1006.7
20260506021020 79 0 1.0 6.0 0.00 0.00 0.00 82 1006.6
20260506020518 79 166 2.0 6.0 0.00 0.00 0.00 82 1006.7
20260506020039 79 111 1.0 6.0 0.00 0.00 0.00 82 1006.7
20260506015519 79 142 1.0 6.0 0.00 0.00 0.00 82 1006.6
20260506015019 79 169 1.0 4.0 0.00 0.00 0.00 82 1006.5
20260506014534 79 182 1.0 4.0 0.00 0.00 0.00 82 1006.4
20260506014018 79 192 0.0 6.0 0.00 0.00 0.00 82 1006.3
20260506013518 79 155 1.0 6.0 0.00 0.00 0.00 82 1006.2
20260506013034 79 88 1.0 5.0 0.00 0.00 0.00 82 1006.1
20260506012519 79 184 0.0 6.0 0.00 0.00 0.00 81 1006.0
20260506012021 79 169 1.0 6.0 0.00 0.00 0.00 81 1006.0
20260506011600 79 167 0.0 7.0 0.00 0.00 0.00 81 1006.0
20260506011019 79 127 1.0 7.0 0.00 0.00 0.00 81 1005.8
20260506010520 79 105 2.0 8.0 0.00 0.00 0.00 81 1005.7
20260506010037 79 153 2.0 8.0 0.00 0.00 0.00 81 1005.9
20260506005519 80 0 0.0 6.0 0.00 0.00 0.00 81 1005.8
20260506005019 80 178 1.0 6.0 0.00 0.00 0.00 80 1005.7
20260506004556 80 175 1.0 6.0 0.00 0.00 0.00 80 1005.7
20260506004018 80 151 2.0 7.0 0.00 0.00 0.00 80 1005.6
20260506003517 80 186 2.0 9.0 0.00 0.00 0.00 80 1005.6
20260506003032 80 193 3.0 9.0 0.00 0.00 0.00 79 1005.6
20260506002519 80 158 1.0 9.0 0.00 0.00 0.00 79 1005.6
20260506002017 80 149 1.0 8.0 0.00 0.00 0.00 79 1005.7
20260506001537 80 0 2.0 8.0 0.00 0.00 0.00 79 1005.5
20260506001018 81 96 2.0 8.0 0.00 0.00 0.00 79 1005.6
20260506000523 81 136 1.0 5.0 0.00 0.00 0.00 79 1005.6
20260505235519 81 206 2.0 6.0 0.00 0.00 0.00 79 1005.6
20260505235017 81 152 2.0 10.0 0.00 0.00 0.00 79 1005.5
20260505234544 81 206 2.0 10.0 0.00 0.00 0.00 79 1005.6
20260505234020 81 200 2.0 10.0 0.00 0.00 0.00 78 1005.5
20260505233517 82 180 2.0 6.0 0.00 0.00 0.00 78 1005.5
20260505233034 82 174 1.0 7.0 0.00 0.00 0.00 78 1005.6
20260505232522 82 171 2.0 7.0 0.00 0.00 0.00 78 1005.4
20260505232019 82 198 1.0 7.0 0.00 0.00 0.00 78 1005.4
20260505231538 82 224 3.0 8.0 0.00 0.00 0.00 78 1005.4
20260505231019 82 167 3.0 8.0 0.00 0.00 0.00 78 1005.4
20260505230515 82 161 3.0 8.0 0.00 0.00 0.00 78 1005.6
20260505230051 82 0 2.0 6.0 0.00 0.00 0.00 78 1005.6
20260505225518 82 160 1.0 9.0 0.00 0.00 0.00 77 1005.6
20260505225017 83 212 1.0 9.0 0.00 0.00 0.00 76 1005.6
20260505224540 83 189 3.0 9.0 0.00 0.00 0.00 75 1005.4
20260505224016 83 120 3.0 9.0 0.00 0.00 0.00 75 1005.4
20260505223516 83 109 4.0 8.0 0.00 0.00 0.00 75 1005.3
20260505223032 84 169 2.0 8.0 0.00 0.00 0.00 75 1005.4
20260505222520 84 223 1.0 7.0 0.00 0.00 0.00 76 1005.3
20260505222017 84 257 1.0 7.0 0.00 0.00 0.00 76 1005.3
20260505221535 84 126 0.0 6.0 0.00 0.00 0.00 76 1005.4
20260505221017 83 241 1.0 7.0 0.00 0.00 0.00 76 1005.6
20260505220518 83 172 1.0 8.0 0.00 0.00 0.00 76 1005.5
20260505220040 83 236 3.0 11.0 0.00 0.00 0.00 75 1005.4
20260505215516 84 177 3.0 11.0 0.00 0.00 0.00 75 1005.4
20260505215015 84 195 3.0 11.0 0.00 0.00 0.00 74 1005.6
20260505214535 84 217 2.0 9.0 0.00 0.00 0.00 76 1005.7
20260505214016 84 194 3.0 9.0 0.00 0.00 0.00 76 1005.8
20260505213515 84 164 3.0 9.0 0.00 0.00 0.00 76 1005.9
20260505213037 83 238 2.0 7.0 0.00 0.00 0.00 77 1006.0
20260505212517 83 0 1.0 7.0 0.00 0.00 0.00 77 1006.1
20260505212018 83 0 2.0 12.0 0.00 0.00 0.00 76 1006.0
20260505211537 83 134 2.0 12.0 0.00 0.00 0.00 76 1006.1
20260505211017 84 119 2.0 8.0 0.00 0.00 0.00 76 1006.2
20260505210517 84 225 1.0 8.0 0.00 0.00 0.00 76 1006.2
20260505210033 83 166 1.0 5.0 0.00 0.00 0.00 77 1006.2
20260505205517 83 25 1.0 7.0 0.00 0.00 0.00 77 1006.4
20260505205019 83 159 2.0 7.0 0.00 0.00 0.00 77 1006.5
20260505204543 83 130 2.0 9.0 0.00 0.00 0.00 77 1006.6
20260505204019 83 218 2.0 9.0 0.00 0.00 0.00 76 1006.6
20260505203519 83 140 2.0 6.0 0.00 0.00 0.00 76 1006.8
20260505203047 83 245 1.0 12.0 0.00 0.00 0.00 76 1006.9
20260505202518 83 292 3.0 12.0 0.00 0.00 0.00 76 1006.9
20260505202016 83 242 2.0 8.0 0.00 0.00 0.00 76 1006.9
20260505201537 83 227 2.0 8.0 0.00 0.00 0.00 76 1006.9
20260505201018 83 0 1.0 7.0 0.00 0.00 0.00 76 1006.9
20260505200518 83 40 2.0 9.0 0.00 0.00 0.00 76 1007.0
20260505200035 83 106 2.0 13.0 0.00 0.00 0.00 76 1007.0
20260505195516 83 238 2.0 13.0 0.00 0.00 0.00 76 1007.1
20260505195018 83 244 2.0 12.0 0.00 0.00 0.00 77 1007.1
20260505194548 83 229 2.0 7.0 0.00 0.00 0.00 77 1007.1
20260505194019 82 224 2.0 10.0 0.00 0.00 0.00 77 1007.1
20260505193517 83 237 2.0 11.0 0.00 0.00 0.00 77 1007.2
20260505193037 83 165 4.0 11.0 0.00 0.00 0.00 77 1007.3
20260505192518 82 199 3.0 8.0 0.00 0.00 0.00 79 1007.3
20260505192017 82 226 1.0 8.0 0.00 0.00 0.00 79 1007.4
20260505191540 82 130 2.0 8.0 0.00 0.00 0.00 79 1007.4
20260505191019 82 178 2.0 9.0 0.00 0.00 0.00 80 1007.4
20260505190520 81 252 2.0 10.0 0.00 0.00 0.00 79 1007.5
20260505190037 81 120 3.0 10.0 0.00 0.00 0.00 80 1007.5
20260505185515 81 144 2.0 10.0 0.00 0.00 0.00 79 1007.5
20260505185021 81 229 3.0 8.0 0.00 0.00 0.00 79 1007.6
20260505184537 81 222 1.0 8.0 0.00 0.00 0.00 80 1007.7
20260505184017 81 199 1.0 8.0 0.00 0.00 0.00 80 1007.6
20260505183518 81 119 2.0 9.0 0.00 0.00 0.00 80 1007.7
20260505183035 81 244 0.0 12.0 0.00 0.00 0.00 81 1007.8
20260505182518 80 194 4.0 12.0 0.00 0.00 0.00 81 1007.8
20260505182017 80 140 3.0 8.0 0.00 0.00 0.00 80 1007.7
20260505181537 80 227 2.0 7.0 0.00 0.00 0.00 81 1007.7
20260505181018 80 221 2.0 8.0 0.00 0.00 0.00 81 1007.8
20260505180517 80 234 3.0 8.0 0.00 0.00 0.00 81 1007.9
20260505180043 80 139 1.0 8.0 0.00 0.00 0.00 82 1007.8
20260505175517 80 0 2.0 8.0 0.00 0.00 0.00 82 1007.9
20260505175018 79 225 2.0 9.0 0.00 0.00 0.00 82 1007.8
20260505174535 79 135 1.0 9.0 0.00 0.00 0.00 83 1007.9
20260505174017 79 178 2.0 8.0 0.00 0.00 0.00 83 1008.0
20260505173519 79 219 2.0 9.0 0.00 0.00 0.00 83 1008.0
20260505173035 79 165 2.0 9.0 0.00 0.00 0.00 83 1008.0
20260505172517 79 193 1.0 8.0 0.00 0.00 0.00 83 1008.0
20260505172016 79 140 1.0 8.0 0.00 0.00 0.00 83 1008.0
20260505171532 79 217 2.0 8.0 0.00 0.00 0.00 83 1008.1
20260505171017 79 236 2.0 9.0 0.00 0.00 0.00 83 1008.1
20260505170516 79 182 3.0 9.0 0.00 0.00 0.00 83 1008.1
20260505170033 78 221 1.0 8.0 0.00 0.00 0.00 84 1008.1
20260505165515 78 233 2.0 10.0 0.00 0.00 0.00 84 1008.1
20260505165015 78 171 2.0 11.0 0.00 0.00 0.00 84 1008.2
20260505164532 78 234 2.0 11.0 0.00 0.00 0.00 85 1008.2
20260505164018 78 174 2.0 11.0 0.00 0.00 0.00 84 1008.3
20260505163519 78 241 3.0 11.0 0.00 0.00 0.00 84 1008.1
20260505163036 77 149 2.0 11.0 0.00 0.00 0.00 85 1008.3
20260505162516 77 148 2.0 8.0 0.00 0.00 0.00 84 1008.3
20260505162019 77 221 1.0 9.0 0.00 0.00 0.00 85 1008.3
20260505161534 77 209 1.0 9.0 0.00 0.00 0.00 85 1008.5
20260505161018 77 146 1.0 13.0 0.00 0.00 0.00 85 1008.5
20260505160518 77 223 2.0 13.0 0.00 0.00 0.00 84 1008.4
20260505153038 76 152 2.0 11.0 0.00 0.00 0.00 85 1008.1
20260505152515 76 168 3.0 8.0 0.00 0.00 0.00 86 1008.0
20260505152021 76 0 1.0 8.0 0.00 0.00 0.00 86 1007.9
20260505151537 75 0 2.0 8.0 0.00 0.00 0.00 86 1008.1
20260505151021 75 243 2.0 5.0 0.00 0.00 0.00 86 1008.1
20260505150520 75 231 1.0 8.0 0.00 0.00 0.00 87 1008.1
20260505140518 73 234 1.0 7.0 0.00 0.00 0.00 89 1008.0
20260505125021 71 0 0.0 8.0 0.00 0.00 0.00 91 1007.9
20260505124550 71 180 1.0 8.0 0.00 0.00 0.00 91 1007.6
20260505124018 71 142 1.0 8.0 0.00 0.00 0.00 91 1007.3
20260505123518 71 182 2.0 8.0 0.00 0.00 0.00 91 1007.1
20260505123049 71 144 3.0 8.0 0.00 0.00 0.00 91 1007.0
20260505122517 71 0 3.0 7.0 0.00 0.00 0.00 91 1007.1
20260505122017 71 194 1.0 6.0 0.00 0.00 0.00 91 1007.3
20260505121604 71 163 0.0 6.0 0.00 0.00 0.00 91 1007.5
20260505121021 71 0 1.0 6.0 0.00 0.00 0.00 91 1007.4
20260505120518 71 0 0.0 6.0 0.00 0.00 0.00 91 1007.4
20260505120035 71 132 1.0 7.0 0.00 0.00 0.00 91 1007.3
20260505115517 71 100 2.0 7.0 0.00 0.00 0.00 91 1007.3
20260505115017 71 173 0.0 4.0 0.00 0.00 0.00 91 1007.2
20260505114534 70 192 0.0 6.0 0.00 0.00 0.00 91 1007.2
20260505114017 71 191 1.0 8.0 0.00 0.00 0.00 91 1007.0
20260505113517 70 181 2.0 8.0 0.00 0.00 0.00 90 1006.9
20260505113036 70 169 2.0 6.0 0.00 0.00 0.00 90 1007.0
20260505112517 70 0 1.0 8.0 0.00 0.00 0.00 90 1007.3
20260505112018 70 209 1.0 8.0 0.00 0.00 0.00 90 1007.3
20260505111539 70 150 1.0 6.0 0.00 0.00 0.00 90 1007.1
20260505111018 70 87 0.0 6.0 0.00 0.00 0.00 90 1007.1
20260505110517 70 128 1.0 8.0 0.00 0.00 0.00 90 1007.0
20260505102015 70 170 1.0 6.0 0.00 0.00 0.00 90 1007.2
20260505101541 70 159 2.0 6.0 0.00 0.00 0.00 90 1007.1
20260505101015 70 133 1.0 6.0 0.00 0.00 0.00 90 1007.2
20260505100518 70 147 1.0 7.0 0.00 0.00 0.00 90 1007.3
20260505100043 70 120 2.0 7.0 0.00 0.00 0.00 90 1007.3